Asheboro, NC

3:13 PM EST on January 20, 2017 (GMT -0500)
Asheboro Municipal

Weather History for KHBI - February, 2014

Change the Weather History Date:

Thursday, February 20, 2014

  Actual Average Record
Temperature  
Mean Temperature 62 °F -  
Max Temperature 76 °F 56 °F 76 °F (2014)
Min Temperature 48 °F 36 °F 4 °F (2015)
Degree Days  
Heating Degree Days 3    
Growing Degree Days 12 (Base 50)    
Moisture  
Dew Point 48 °F    
Average Humidity 63    
Maximum Humidity 100    
Minimum Humidity 41    
Precipitation  
Precipitation 0.00 in - - ()
Sea Level Pressure  
Sea Level Pressure 30.12 in    
Wind  
Wind Speed 3 mph (SSE)    
Max Wind Speed 18 mph    
Max Gust Speed 28 mph    
Visibility 10 miles    
Events      
Averages and records for this station are not official NWS values.
T = Trace of Precipitation, MM = Missing Value Source: NWS Daily Summary

Daily Weather History Graph

Daily Weather History Graph

Search for Another Location

Airport or City:

Trip Planner

Search our weather history database for the weather conditions in past years. The results will help you decide how hot, cold, wet, or windy it might be!

Date:

Astronomy

Feb. 20, 2014 Rise Set
Actual Time 7:00 AM EST 6:06 PM EST
Civil Twilight 6:34 AM EST 6:32 PM EST
Nautical Twilight 6:05 AM EST 7:02 PM EST
Astronomical Twilight 5:35 AM EST 7:31 PM EST
Moon 11:46 PM EST 9:54 AM EST
Length of Visible Light 11h 57m
Length of Day
11h 05m
Waning Gibbous, 71% of the Moon is Illuminated
Feb 20
Waning Gibbous
Feb 22
Last Quarter
Mar 1
New
Mar 8
First Quarter
Mar 16
Full

Hourly Weather History & Observations

Time (EST) Temp. Dew Point Humidity Pressure Visibility Wind Dir Wind Speed Gust Speed Precip Events Conditions
12:15 AM 50.5 °F 49.8 °F 97% 30.09 in 7.0 mi Calm Calm - N/A   Clear
12:35 AM 51.4 °F 50.7 °F 97% 30.11 in 10.0 mi Calm Calm - N/A   Clear
12:55 AM 51.4 °F 50.4 °F 96% 30.12 in 7.0 mi Calm Calm - N/A   Clear
1:08 AM 50.0 °F 50.0 °F 100% 30.12 in 7.0 mi Calm Calm - N/A   Clear
1:15 AM 50.2 °F 49.8 °F 99% 30.13 in 7.0 mi Calm Calm - N/A   Clear
1:24 AM 50.0 °F 48.2 °F 94% 30.14 in 7.0 mi Calm Calm - N/A   Clear
1:35 AM 48.9 °F 48.6 °F 99% 30.14 in 5.0 mi Calm Calm - N/A   Clear
1:44 AM 48.2 °F 48.2 °F 100% 30.14 in 5.0 mi Calm Calm - N/A   Clear
1:55 AM 49.1 °F 49.1 °F 100% 30.14 in 7.0 mi Calm Calm - N/A   Clear
2:07 AM 55.4 °F 48.2 °F 77% 30.13 in 10.0 mi Calm Calm - N/A   Clear
2:15 AM 55.6 °F 48.0 °F 76% 30.13 in 10.0 mi Calm Calm - N/A   Clear
2:29 AM 57.2 °F 46.4 °F 67% 30.14 in 10.0 mi Calm Calm - N/A   Clear
2:35 AM 56.8 °F 46.4 °F 68% 30.14 in 10.0 mi Calm Calm - N/A   Clear
2:42 AM 57.2 °F 44.6 °F 63% 30.14 in 10.0 mi ESE 4.6 mph - N/A   Clear
2:55 AM 56.3 °F 44.8 °F 65% 30.14 in 10.0 mi Calm Calm - N/A   Clear
3:09 AM 55.4 °F 44.6 °F 67% 30.15 in 10.0 mi Calm Calm - N/A   Clear
3:15 AM 56.1 °F 43.2 °F 62% 30.15 in 10.0 mi Calm Calm - N/A   Clear
3:35 AM 56.3 °F 40.6 °F 56% 30.15 in 10.0 mi Calm Calm - N/A   Clear
3:48 AM 55.4 °F 39.2 °F 54% 30.14 in 10.0 mi Calm Calm - N/A   Clear
3:55 AM 55.9 °F 39.6 °F 54% 30.16 in 10.0 mi Calm Calm - N/A   Scattered Clouds
4:06 AM 55.4 °F 39.2 °F 54% 30.17 in 10.0 mi Calm Calm - N/A   Mostly Cloudy
4:15 AM 55.6 °F 40.5 °F 57% 30.16 in 10.0 mi Calm Calm - N/A   Mostly Cloudy
4:29 AM 55.4 °F 39.2 °F 54% 30.14 in 10.0 mi Calm Calm - N/A   Scattered Clouds
4:35 AM 55.8 °F 39.6 °F 55% 30.15 in 10.0 mi Calm Calm - N/A   Scattered Clouds
4:44 AM 55.4 °F 39.2 °F 54% 30.15 in 10.0 mi Calm Calm - N/A   Clear
4:55 AM 55.8 °F 39.6 °F 55% 30.16 in 10.0 mi Calm Calm - N/A   Clear
5:15 AM 55.4 °F 39.4 °F 55% 30.17 in 10.0 mi Calm Calm - N/A   Clear
5:29 AM 55.4 °F 39.2 °F 54% 30.15 in 10.0 mi Calm Calm - N/A   Clear
5:35 AM 55.4 °F 39.2 °F 54% 30.16 in 10.0 mi SE 4.6 mph - N/A   Clear
5:49 AM 55.4 °F 39.2 °F 54% 30.16 in 10.0 mi ESE 5.8 mph - N/A   Clear
5:55 AM 55.6 °F 39.6 °F 55% 30.17 in 10.0 mi SE 5.8 mph - N/A   Clear
6:09 AM 55.4 °F 39.2 °F 54% 30.17 in 10.0 mi ESE 5.8 mph - N/A   Clear
6:15 AM 55.6 °F 40.3 °F 56% 30.17 in 10.0 mi ESE 4.6 mph - N/A   Clear
6:35 AM 55.2 °F 41.0 °F 59% 30.17 in 10.0 mi East 4.6 mph - N/A   Clear
6:48 AM 55.4 °F 41.0 °F 58% 30.17 in 10.0 mi ESE 3.5 mph - N/A   Clear
6:55 AM 54.7 °F 41.2 °F 60% 30.18 in 10.0 mi SE 5.8 mph - N/A   Scattered Clouds
7:15 AM 54.0 °F 41.5 °F 63% 30.18 in 10.0 mi ESE 4.6 mph - N/A   Scattered Clouds
7:25 AM 53.6 °F 42.8 °F 67% 30.18 in 10.0 mi Calm Calm - N/A   Scattered Clouds
7:35 AM 53.8 °F 41.9 °F 64% 30.18 in 10.0 mi ESE 3.5 mph - N/A   Scattered Clouds
7:48 AM 53.6 °F 42.8 °F 67% 30.17 in 10.0 mi Calm Calm - N/A   Scattered Clouds
7:55 AM 53.6 °F 42.1 °F 65% 30.18 in 10.0 mi ESE 4.6 mph - N/A   Scattered Clouds
8:08 AM 53.6 °F 42.8 °F 67% 30.18 in 10.0 mi Calm Calm - N/A   Clear
8:15 AM 53.8 °F 42.8 °F 66% 30.18 in 10.0 mi ESE 3.5 mph - N/A   Clear
8:28 AM 53.6 °F 42.8 °F 67% 30.19 in 10.0 mi SE 4.6 mph - N/A   Clear
8:35 AM 54.7 °F 43.2 °F 65% 30.19 in 10.0 mi SE 5.8 mph - N/A   Clear
8:48 AM 55.4 °F 44.6 °F 67% 30.19 in 10.0 mi ESE 3.5 mph - N/A   Clear
8:55 AM 56.1 °F 44.1 °F 64% 30.19 in 10.0 mi SE 5.8 mph - N/A   Clear
9:08 AM 55.4 °F 44.6 °F 67% 30.19 in 10.0 mi SE 4.6 mph - N/A   Clear
9:15 AM 56.8 °F 45.7 °F 66% 30.19 in 10.0 mi ESE 4.6 mph - N/A   Clear
9:28 AM 57.2 °F 46.4 °F 67% 30.18 in 10.0 mi SE 4.6 mph - N/A   Clear
9:35 AM 57.7 °F 47.3 °F 68% 30.18 in 10.0 mi ESE 4.6 mph - N/A   Clear
9:49 AM 59.0 °F 48.2 °F 67% 30.18 in 10.0 mi SSE 4.6 mph - N/A   Clear
9:55 AM 59.2 °F 48.7 °F 68% 30.18 in 10.0 mi SE 3.5 mph - N/A   Clear
10:08 AM 60.8 °F 48.2 °F 63% 30.18 in 10.0 mi SSE 4.6 mph - N/A   Clear
10:15 AM 60.6 °F 50.0 °F 68% 30.18 in 10.0 mi ESE 6.9 mph - N/A   Clear
10:29 AM 62.6 °F 51.8 °F 68% 30.18 in 10.0 mi Calm Calm - N/A   Scattered Clouds
10:35 AM 62.1 °F 51.3 °F 68% 30.17 in 10.0 mi Calm Calm - N/A   Scattered Clouds
10:48 AM 62.6 °F 51.8 °F 68% 30.17 in 10.0 mi Calm Calm - N/A   Scattered Clouds
10:55 AM 63.7 °F 51.8 °F 65% 30.17 in 10.0 mi Calm Calm - N/A   Scattered Clouds
11:08 AM 64.4 °F 53.6 °F 68% 30.16 in 10.0 mi Calm Calm - N/A   Clear
11:15 AM 65.8 °F 53.1 °F 63% 30.16 in 10.0 mi Calm Calm - N/A   Clear
11:28 AM 66.2 °F 53.6 °F 64% 30.15 in 10.0 mi SSE 3.5 mph - N/A   Clear
11:35 AM 66.9 °F 53.6 °F 62% 30.15 in 10.0 mi SSE 3.5 mph - N/A   Clear
11:48 AM 68.0 °F 53.6 °F 60% 30.14 in 10.0 mi South 5.8 mph - N/A   Clear
11:55 AM 68.2 °F 54.1 °F 61% 30.13 in 10.0 mi SSE 5.8 mph - N/A   Clear
12:08 PM 69.8 °F 55.4 °F 60% 30.13 in 10.0 mi South 6.9 mph - N/A   Clear
12:29 PM 71.6 °F 53.6 °F 53% 30.12 in 10.0 mi SSE 12.7 mph 17.3 mph N/A   Scattered Clouds
1:07 PM 73.4 °F 51.8 °F 47% 30.09 in 10.0 mi SSW 9.2 mph - N/A   Scattered Clouds
1:24 PM 73.4 °F 48.2 °F 41% 30.09 in 10.0 mi South 11.5 mph 17.3 mph N/A   Scattered Clouds
1:35 PM 73.4 °F 48.6 °F 41% 30.08 in 10.0 mi SSW 16.1 mph 19.6 mph N/A   Scattered Clouds
1:48 PM 73.4 °F 50.0 °F 44% 30.07 in 10.0 mi South 12.7 mph 21.9 mph N/A   Scattered Clouds
2:04 PM 73.4 °F 51.8 °F 47% 30.07 in 10.0 mi SSW 16.1 mph 27.6 mph N/A   Scattered Clouds
2:15 PM 73.6 °F 51.1 °F 45% 30.06 in 10.0 mi South 16.1 mph 21.9 mph N/A   Scattered Clouds
2:27 PM 73.4 °F 51.8 °F 47% 30.06 in 10.0 mi SSW 11.5 mph 21.9 mph N/A   Scattered Clouds
2:48 PM 73.4 °F 51.8 °F 47% 30.05 in 10.0 mi South 12.7 mph 19.6 mph N/A   Clear
3:04 PM 75.2 °F 51.8 °F 44% 30.05 in 10.0 mi SSW 12.7 mph 23.0 mph N/A   Scattered Clouds
3:15 PM 75.2 °F 51.1 °F 43% 30.05 in 10.0 mi SSW 12.7 mph 25.3 mph N/A   Scattered Clouds
3:26 PM 75.2 °F 50.0 °F 41% 30.05 in 10.0 mi South 18.4 mph 26.5 mph N/A   Mostly Cloudy
3:35 PM 76.1 °F 50.7 °F 41% 30.05 in 10.0 mi SSW 13.8 mph 19.6 mph N/A   Scattered Clouds
4:04 PM 75.2 °F 51.8 °F 44% 30.04 in 10.0 mi South 16.1 mph 23.0 mph N/A   Scattered Clouds
4:29 PM 75.2 °F 51.8 °F 44% 30.04 in 10.0 mi SSW 15.0 mph - N/A   Scattered Clouds
4:48 PM 75.2 °F 51.8 °F 44% 30.04 in 10.0 mi SSW 11.5 mph 18.4 mph N/A   Mostly Cloudy
5:06 PM 75.2 °F 51.8 °F 44% 30.05 in 10.0 mi SSW 16.1 mph 23.0 mph N/A   Scattered Clouds
6:15 PM 72.9 °F 52.3 °F 48% 30.05 in 10.0 mi South 6.9 mph - N/A   Clear
6:35 PM 70.3 °F 52.7 °F 53% 30.05 in 10.0 mi Calm Calm - N/A   Clear
6:55 PM 70.3 °F 52.2 °F 52% 30.05 in 10.0 mi Calm Calm - N/A   Clear
7:15 PM 67.5 °F 52.3 °F 58% 30.05 in 10.0 mi Calm Calm - N/A   Clear
7:35 PM 67.5 °F 52.2 °F 58% 30.04 in 10.0 mi Calm Calm - N/A   Clear
7:40 PM 68.0 °F 51.8 °F 56% 30.04 in 10.0 mi SSE 4.6 mph - N/A   Clear
7:55 PM 67.8 °F 52.0 °F 57% 30.04 in 10.0 mi Calm Calm - N/A   Clear
8:15 PM 67.3 °F 51.8 °F 58% 30.04 in 10.0 mi Calm Calm - N/A   Clear
8:35 PM 67.5 °F 52.0 °F 58% 30.03 in 10.0 mi South 9.2 mph - N/A   Clear
8:55 PM 68.2 °F 52.7 °F 58% 30.03 in 10.0 mi South 11.5 mph 17.3 mph N/A   Clear
9:15 PM 67.6 °F 53.6 °F 61% 30.03 in 10.0 mi South 15.0 mph - N/A   Clear
9:35 PM 67.5 °F 54.1 °F 62% 30.03 in 10.0 mi South 17.3 mph 24.2 mph N/A   Clear
9:55 PM 67.3 °F 55.0 °F 65% 30.03 in 10.0 mi South 17.3 mph 25.3 mph N/A   Clear
10:15 PM 66.6 °F 56.3 °F 69% 30.03 in 10.0 mi South 16.1 mph 21.9 mph N/A   Clear
10:35 PM 66.2 °F 56.7 °F 71% 30.03 in 10.0 mi South 12.7 mph 20.7 mph N/A   Clear
10:55 PM 65.7 °F 56.8 °F 73% 30.02 in 10.0 mi South 15.0 mph 23.0 mph N/A   Clear
11:15 PM 65.1 °F 57.4 °F 76% 30.02 in 10.0 mi South 13.8 mph - N/A   Clear
11:35 PM 64.8 °F 58.3 °F 79% 30.01 in 10.0 mi South 11.5 mph 23.0 mph N/A   Clear
11:55 PM 64.4 °F 58.8 °F 82% 30.00 in 10.0 mi South 13.8 mph 20.7 mph N/A   Clear